User: anonymous   Login
Location: Vancouver
(49.2500°N, 123.1330°W)
Time: 22:27:39
(UTC-07:00)
Language:

BREEZE-M DEB (TANK) - Orbit

View from above orbital plane
View from above orbital plane
View from above satellite
View from above satellite

Ground track
Ground track

The orbit data is extracted from the following two-line orbital elements,

1 27821U 03024B   17175.15459069 +.00002276 +00000-0 +21584-3 0  9999
2 27821 049.5543 268.3779 4943395 034.9296 349.2954 05.75816349280851
Epoch (UTC): 24 June 2017 03:42:36
Eccentricity: 0.4943395
inclination: 49.5543°
perigee height: 270 km
apogee height: 13270 km
right ascension of ascending node: 268.3779°
argument of perigee: 34.9296°
revolutions per day: 5.75816349
mean anomaly at epoch: 349.2954°
orbit number at epoch: 28085

The dashed part of the orbit path shows where the satellite is in the earth's shadow,  

DLR